Regional Weather Roundup
Issued by NWS

Home | Current Version | Previous Version | Text Only | Print | Product List | Glossary On
Versions: 1 2 3 4 5 6 7 8 9 10 11 12 13 14 15 16 17 18 19 20 21 22 23 24 25 26 27 28 29 30 31 32 33 34 35 36 37 38 39 40 41 42 43 44 45 46 47 48 49 50
000
ASUS44 KJAN 010003
RWRMS

MISSISSIPPI HOURLY WEATHER ROUNDUP
NATIONAL WEATHER SERVICE JACKSON MS
700 PM CDT MON AUG 31 2015

NOTE: "FAIR: INDICATES FEW OR NO CLOUDS BELOW 12,000 FEET WITH NO
SIGNIFICANT WEATHER AND/OR OBSTRUCTIONS TO VISIBILITY.

MSZ001>002-007>008-010>013-018>021-025>028-034>036-010100-
NORTHWEST MISSISSIPPI

CITY           SKY/WX    TMP DP  RH WIND       PRES   REMARKS
CLARKSDALE     FAIR      84  73  70 NE5       30.02S HX  91
CLEVELAND      MOCLDY    90  66  45 E6        30.00R HX  92
GREENWOOD      MOCLDY    87  66  49 E6        30.00S
6HR MIN TEMP:  87; 6HR MAX TEMP:  95;

GREENVILLE     MOCLDY    88  68  51 CALM      30.00R HX  91
6HR MIN TEMP:  82; 6HR MAX TEMP:  96; 6HR PCP: TRACE;

OLIVE BRANCH   MOCLDY    84  68  58 E5        30.04F
OXFORD         FAIR      82  66  57 E6        30.06S
TUNICA         DRIZZLE   84  72  65 E3        30.03S
$$

MSZ003>006-009-014>017-022>024-029>033-037>039-010100-
NORTHEAST MISSISSIPPI

CITY           SKY/WX    TMP DP  RH WIND       PRES   REMARKS
COLUMBUS AFB   CLEAR     82  69  64 NE2       30.04S
6HR MIN TEMP:  82; 6HR MAX TEMP:  87;

CORINTH        FAIR      81  68  65 SE3       30.05S
GOLDN TRIANGLE CLEAR     82  66  57 NE7       30.04S
STARKVILLE     FAIR      82  64  54 NE8       30.04S
TUPELO         PTCLDY    84  66  54 E5        30.04F
6HR MIN TEMP:  83; 6HR MAX TEMP:  88;

$$

MSZ040-058-010100-
CENTRAL MISSISSIPPI

CITY           SKY/WX    TMP DP  RH WIND       PRES   REMARKS
JACKSON INTL   MOCLDY    90  62  39 S6        30.00S HX  90
6HR MIN TEMP:  90; 6HR MAX TEMP:  96;

JACKSON HAWKNS CLOUDY    89  62  40 S5        30.01R
6HR MIN TEMP:  89; 6HR MAX TEMP:  96;

MERIDIAN KEY   MOCLDY    85  69  58 E3        30.02S
6HR MIN TEMP:  85; 6HR MAX TEMP:  92;

MERIDIAN NAS   PTCLDY    83  71  67 CALM      30.02S
6HR MIN TEMP:  83; 6HR MAX TEMP:  92;

VICKSBURG      MOCLDY    85  63  47 S3        30.00R
6HR MIN TEMP:  85; 6HR MAX TEMP:  94;

$$

MSZ059>079-010100-
SOUTH MISSISSIPPI

CITY           SKY/WX    TMP DP  RH WIND       PRES   REMARKS
BROOKHAVEN     FAIR      88  64  45 CALM      30.04S
HATTIESBURG    PTCLDY    87  70  56 S3        30.01S HX  92
6HR MIN TEMP:  87; 6HR MAX TEMP:  95;

MCCOMB         MOCLDY    86  70  58 W5        30.03R HX  90
6HR MIN TEMP:  86; 6HR MAX TEMP:  93;

NATCHEZ        CLOUDY    84  72  65 SW5       30.03S
6HR MIN TEMP:  84; 6HR MAX TEMP:  91;

PINE BELT      MOCLDY    88 N/A N/A CALM      30.03S
6HR MIN TEMP:  88; 6HR MAX TEMP:  95;

$$

MSZ080>082-010100-
COASTAL MISSISSIPPI

CITY           SKY/WX    TMP DP  RH WIND       PRES   REMARKS
BAY ST LOUIS   CLEAR     82  64  54 SW5       30.02
BILOXI         CLEAR     84  70  63 SW6       30.01S
6HR MIN TEMP:  84; 6HR MAX TEMP:  93;

PASCAGOULA     CLEAR     83  70  64 SW3       30.01S
6HR MIN TEMP:  83; 6HR MAX TEMP:  93;

GULFPORT       CLEAR     85  69  58 CALM      30.01S
6HR MIN TEMP:  85; 6HR MAX TEMP:  92;

$$


USA.gov is the U.S. government's official web portal to all federal, state and local government web resources and services.